Tracking 25734 objects as of 29-May-2022
HD Live streaming from Space Station
objects crossing your sky now

NAVSTAR 27 (USA 84)

Track NAVSTAR 27 (USA 84) now!
NAVSTAR 27 (USA 84) is classified as:


NORAD ID: 22108
Int'l Code: 1992-058A
Perigee: 21,364.2 km
Apogee: 21,441.8 km
Inclination: 54.7 °
Period: 767.7 minutes
Semi major axis: 27773 km
RCS: 3.0849 m2 (large)
Launch date: September 9, 1992
Source: United States (US)
Launch site: AIR FORCE EASTERN TEST RANGE (AFETR)
aabbcc
Your satellite tracking list
Your tracking list is empty




NASA's NSSDC Master Catalog

Two Line Element Set (TLE):
1 22108U 92058A   22146.01612045  .00000008  00000-0  00000-0 0  9999
2 22108  54.7329 217.3934 0013985  16.1035 344.0048  1.87562268215204
Source of the keplerian elements: AFSPC